Helicity
165 178 191 185 194 206 176 145 124 132 130 130 126 126 128 130 132 144 151 143 147 151 153 158 144 154 157 150 146 148 155 158 154 132 136 99 88 90 73 5 19 113 168
139 148 123 131 148 151 147 147 143 134 127 124 122 123 120 124 128 136 141 144 145 148 151 146 141 148 136 137 147 140 147 160 182 140 134 135 132 120 125 90 39 7 78
196 174 146 148 147 139 147 137 125 116 111 108 110 114 114 118 115 123 126 129 126 140 127 129 124 115 126 125 127 141 158 185 195 190 142 137 128 127 115 117 67 23 -9
204 182 141 120 130 136 119 110 107 103 106 104 103 105 107 103 155 144 116 124 124 127 117 109 99 95 110 119 146 150 145 156 182 195 137 109 90 103 112 99 124 101 68
162 125 108 131 118 107 108 103 101 103 101 101 98 99 109 148 127 85 99 108 109 102 95 80 79 71 39 66 145 175 310 240 274 295 284 207 201 165 152 132 131 114 82
151 138 128 114 105 106 108 111 109 108 105 100 101 108 134 113 62 44 51 95 86 82 94 76 81 36 25 13 16 22 34 111 190 226 277 261 273 233 192 194 168 123 72
127 117 107 97 108 115 118 113 107 101 108 104 128 105 71 97 42 30 9 45 55 59 66 70 78 68 41 56 36 13 28 27 22 28 152 231 209 245 229 166 181 157 90
110 104 100 118 117 108 102 105 113 118 111 126 89 87 94 91 21 7 -2 40 64 64 58 56 80 50 79 53 27 21 31 86 95 90 123 145 150 139 149 138 131 158 139
99 105 120 112 109 102 101 113 116 116 125 110 91 90 84 78 14 0 4 45 39 57 75 59 85 73 63 17 19 34 63 57 43 38 99 56 92 93 119 176 145 219 180
106 116 109 106 106 103 116 122 144 144 131 107 99 87 52 55 24 -1 5 56 67 67 67 43 30 37 15 5 24 56 83 55 8 59 57 62 61 58 55 167 138 175 163
118 109 105 101 105 106 121 137 149 126 108 106 87 79 81 85 78 8 18 41 58 64 55 56 51 13 -5 -22 37 39 37 34 20 46 68 70 87 106 99 88 187 117 96
110 105 116 103 103 101 123 144 119 107 114 93 73 79 96 91 41 30 10 21 25 75 83 76 59 -1 47 9 43 -4 2 17 59 37 40 51 52 64 92 103 95 97 77
120 110 115 104 103 114 144 114 110 116 110 74 77 91 91 73 79 49 31 18 54 67 81 38 -4 -14 99 72 52 12 60 55 37 30 49 62 72 87 80 101 87 89 98
124 117 107 107 102 141 133 116 121 127 83 69 85 91 91 -58 66 109 93 75 59 62 54 47 -41 29 116 76 56 64 26 12 13 14 15 17 23 66 96 107 106 78 57
124 113 102 108 124 130 115 117 112 100 62 27 61 64 -31 -52 56 40 -6 51 74 65 40 -1 -32 8 26 57 86 63 22 11 8 -14 -22 -13 -6 -15 -11 75 52 46 34
116 112 104 110 129 115 123 107 65 36 10 -5 -4 -11 -31 -28 -7 -17 -18 10 33 20 50 -20 -42 -18 14 5 -3 21 -3 -3 -12 6 2 -2 17 -1 4 3 14 -2 10
110 106 111 121 134 122 113 104 48 59 16 -8 -14 -8 -12 -15 -16 -21 -18 6 21 27 34 -3 -43 -32 -8 -4 10 -11 -13 18 62 10 20 14 12 65 13 -7 -6 15 -6
97 66 118 124 125 122 109 105 83 42 -22 -13 -9 -12 -17 -4 -18 -22 -10 17 49 40 30 2 -30 -45 -40 17 26 11 -11 22 64 67 37 32 36 20 22 62 84 0 -17
78 106 111 126 125 81 103 90 81 -8 -26 -9 7 4 -19 -16 -5 -14 -7 56 66 59 36 16 -17 -33 -44 9 29 14 18 57 127 81 37 32 26 24 101 142 76 47 71
79 81 71 132 109 103 96 72 57 -39 -20 16 10 23 4 0 -36 33 61 74 94 79 45 14 -5 -23 -38 -16 34 17 27 69 117 120 78 85 82 60 43 53 91 50 117
84 97 92 112 107 76 70 66 -33 -41 -1 33 59 38 23 -37 51 58 78 105 135 141 116 68 11 -18 -34 -35 23 24 20 50 59 146 121 103 50 42 37 28 48 61 53
73 89 97 107 75 28 72 3 -39 -26 6 15 37 44 20 31 54 78 94 119 147 171 184 140 71 0 -34 -41 -33 16 15 30 61 100 99 106 64 38 53 55 53 44 32
42 85 89 89 2 7 25 -42 -34 -11 11 8 -4 38 47 69 85 94 117 147 160 175 183 156 95 18 -27 -34 -34 0 25 19 36 50 66 80 73 50 40 57 48 68 55
26 72 72 26 -75 19 -1 -45 -22 -11 -6 8 13 30 66 98 109 108 113 128 150 171 167 155 111 59 -5 -21 -33 -11 23 23 27 38 67 64 65 40 42 31 47 57 68
15 46 23 -105 -83 -21 -5 -27 -8 14 16 14 37 29 81 98 111 124 121 127 148 150 148 133 112 75 27 9 -13 -19 -9 21 46 49 39 44 74 54 41 51 44 51 65
-13 2 -27 -103 -72 -37 -41 -9 -2 -7 23 25 36 63 85 102 120 145 139 160 173 170 152 129 113 98 68 30 12 0 -10 5 25 54 43 43 63 48 52 45 61 55 57
Wind_Speed
50 54 58 59 61 64 66 67 69 72 76 79 81 83 83 84 83 84 83 83 84 84 82 81 83 79 81 80 77 76 77 76 84 87 76 72 73 73 77 82 81 80 79
52 56 59 60 62 64 68 71 75 79 80 82 83 84 85 85 83 84 86 84 85 84 82 82 82 75 74 72 70 70 69 65 68 79 73 71 71 70 73 77 78 80 80
54 57 63 65 67 70 73 77 78 81 82 83 84 85 86 85 86 83 80 79 80 79 79 79 77 74 73 70 68 67 65 65 65 70 82 74 76 71 77 79 83 84 87
58 60 64 67 68 71 75 76 79 80 83 83 83 83 83 83 77 81 84 83 79 72 69 69 70 68 67 68 66 64 64 64 62 66 86 87 81 76 74 80 78 71 73
60 64 66 68 71 74 75 78 79 80 81 82 84 82 79 75 77 86 78 75 72 71 67 65 63 62 58 55 65 65 58 57 58 58 61 70 73 69 67 69 75 72 70
65 68 69 71 72 74 77 79 81 80 81 80 79 78 80 79 83 77 76 69 66 65 63 65 64 63 82 90 95 97 96 73 52 54 58 56 55 56 63 63 63 62 66
66 66 69 70 74 77 78 78 79 80 78 79 75 81 86 77 79 79 80 71 68 67 62 61 69 71 83 86 95 101 100 103 108 105 65 56 62 60 60 59 56 55 57
67 68 67 73 78 78 77 76 76 75 75 72 81 77 74 73 75 76 71 69 63 60 60 60 68 83 73 88 96 97 94 84 67 71 69 67 53 53 53 54 57 56 62
67 67 71 74 75 74 73 73 74 75 69 78 76 71 69 64 64 69 73 67 66 57 60 63 64 71 72 91 88 86 80 84 77 52 41 38 40 37 37 45 53 54 62
65 69 69 70 69 67 67 70 65 64 74 75 66 63 58 59 58 67 72 64 65 63 67 67 69 68 69 86 74 77 71 73 68 49 38 41 42 37 31 34 38 45 51
64 66 67 65 63 63 64 60 71 78 74 64 54 48 44 46 51 65 72 71 63 59 59 60 59 65 72 77 74 55 59 56 53 41 37 38 38 42 38 33 29 31 33
62 63 64 62 64 62 59 70 76 71 58 49 45 46 50 47 59 56 67 56 61 70 67 61 60 78 86 76 73 62 61 50 37 36 33 34 34 32 34 30 28 38 40
60 62 62 61 59 58 69 76 70 57 50 49 49 38 52 62 62 34 31 48 69 63 49 39 71 81 68 51 57 45 40 44 42 39 34 31 27 26 30 33 28 27 35
59 61 60 57 60 65 69 66 56 48 51 39 38 48 54 60 29 37 46 47 51 60 50 50 61 63 54 46 45 37 38 43 48 42 48 52 49 29 17 33 36 47 63
57 57 57 62 64 67 65 57 54 49 37 23 43 33 41 63 19 24 26 35 52 46 54 48 51 54 52 49 46 46 40 49 49 43 40 39 31 42 45 13 48 56 67
56 53 57 67 65 69 58 51 55 45 35 29 19 25 38 61 44 46 38 27 42 45 43 36 31 39 50 50 49 48 46 47 35 36 34 33 33 38 45 49 53 61 68
49 49 56 59 64 64 52 45 26 55 47 26 18 31 39 55 53 40 25 27 37 35 28 22 21 22 44 46 44 40 38 35 35 33 32 33 33 30 33 38 44 53 56
50 47 56 66 64 54 46 44 45 25 39 32 25 30 36 48 48 30 19 33 30 25 17 11 11 14 15 39 38 32 35 33 32 32 30 31 31 31 28 27 37 47 49
57 53 60 55 57 40 39 32 42 21 37 35 27 20 32 41 38 20 16 27 25 21 14 9 9 8 11 37 39 35 34 31 29 29 31 30 27 23 20 20 19 12 38
51 56 49 55 52 40 34 25 18 33 36 22 21 13 29 35 34 13 18 20 24 22 16 9 5 8 13 30 42 39 37 34 28 21 26 29 25 25 18 13 12 24 10
50 47 57 62 44 29 25 34 38 38 30 22 12 15 27 40 18 14 14 18 21 21 16 6 3 11 16 26 45 43 42 40 33 27 23 21 19 16 15 13 15 11 5
57 57 62 54 29 17 38 13 39 39 28 27 18 15 23 11 12 14 16 18 18 19 16 5 3 11 20 28 36 48 47 47 40 30 24 23 20 18 16 17 15 15 6
63 55 60 45 17 21 19 30 43 40 28 28 30 17 14 15 16 18 20 20 19 18 16 9 4 12 22 33 41 52 53 53 48 40 31 24 23 20 18 18 17 15 11
64 60 61 20 36 19 13 40 44 46 38 27 29 26 17 16 22 26 25 24 20 18 15 11 10 13 26 35 45 55 58 55 52 45 38 30 27 21 17 15 15 14 11
64 63 69 53 42 18 20 40 42 35 27 26 19 30 18 17 20 22 23 25 23 17 14 9 14 15 25 36 45 53 60 63 57 46 41 34 31 26 18 14 9 9 11
65 66 67 50 40 27 37 42 38 37 27 22 23 18 19 20 21 21 24 32 29 21 15 8 5 11 24 34 43 54 59 68 65 58 50 43 37 32 29 23 17 15 15
Wind_Direction
336 332 329 326 324 323 321 320 319 320 319 318 318 317 316 315 315 313 312 312 310 309 309 307 305 305 304 303 302 301 298 297 296 299 300 300 298 296 294 287 286 286 287
333 330 327 326 325 323 322 322 321 320 320 319 318 317 317 316 316 314 313 312 311 310 310 308 306 306 305 304 303 301 299 297 296 297 298 297 295 296 292 288 285 282 280
331 331 328 327 325 324 324 323 322 322 321 320 319 318 318 317 316 316 315 314 313 312 311 309 307 306 305 305 303 301 300 298 296 295 292 293 292 292 286 282 276 273 270
335 333 329 327 327 327 326 325 325 324 322 321 321 320 319 318 320 319 318 315 313 312 312 311 309 307 306 304 302 300 299 297 296 293 283 280 283 285 284 280 282 285 283
335 332 330 331 330 329 327 327 326 325 324 323 322 321 320 321 321 319 319 317 315 314 313 312 311 308 304 300 302 300 292 291 291 289 289 289 286 286 285 286 284 286 284
335 333 333 332 331 330 330 329 328 327 326 325 325 324 324 323 321 320 320 319 318 317 316 315 315 313 306 299 294 291 290 296 288 286 288 284 284 284 284 284 286 286 283
335 335 334 334 333 332 332 331 330 329 329 328 328 326 324 325 323 322 321 321 320 319 319 319 316 313 306 303 298 288 283 278 274 275 288 279 282 283 283 281 281 279 278
337 336 336 336 334 334 334 334 334 334 332 333 330 329 329 328 327 326 325 324 324 323 322 322 318 312 314 305 301 292 291 296 297 292 286 286 278 280 280 279 279 277 278
337 338 338 337 336 336 336 337 337 336 337 334 333 333 333 334 334 331 327 328 327 325 327 324 322 319 317 308 307 302 305 304 303 290 257 276 280 267 271 279 274 275 274
341 340 340 340 339 339 340 340 341 342 338 337 338 338 340 340 340 335 332 334 330 330 327 326 323 322 319 310 311 310 312 314 314 315 287 286 290 285 266 264 274 268 274
343 343 343 343 342 343 343 345 343 340 340 342 344 346 347 346 345 339 334 333 337 338 336 334 332 328 319 314 311 321 318 316 314 315 306 300 298 295 288 278 262 267 263
344 344 345 345 345 346 348 345 343 345 347 349 351 351 350 350 347 346 341 346 344 341 340 338 335 320 296 301 297 309 302 319 324 325 321 314 310 303 292 283 269 266 271
346 346 347 348 349 351 348 345 347 351 352 353 352 353 352 349 350 357 352 352 345 349 351 347 335 315 285 255 271 326 340 338 336 328 322 317 316 312 302 288 280 270 271
347 348 350 352 352 351 350 351 353 354 355 355 356 355 354 292 359 4 1 0 357 354 355 356 346 314 307 327 333 351 350 339 332 334 302 292 289 312 309 290 281 267 255
350 351 352 351 352 351 353 355 355 357 358 341 356 356 291 294 330 308 315 3 3 359 357 3 357 338 321 324 343 339 336 324 320 262 234 230 175 199 204 302 271 262 245
352 355 354 349 353 352 356 358 357 1 1 357 324 289 282 292 289 291 297 354 2 5 10 17 24 11 343 338 325 292 300 290 259 239 223 199 187 211 218 207 203 207 219
357 358 356 357 356 357 1 2 344 1 4 5 300 287 287 294 294 294 312 355 11 20 30 39 40 38 358 347 284 259 254 260 267 249 225 204 203 195 191 210 197 187 190
359 2 359 355 359 3 5 7 10 356 294 292 290 289 290 296 298 298 335 21 27 37 46 61 66 58 56 263 261 246 254 255 256 255 227 210 201 192 193 196 189 184 191
354 2 358 4 6 8 10 14 14 317 295 291 291 299 294 295 296 304 4 31 28 30 37 52 68 90 135 239 250 242 247 245 247 256 223 197 197 191 183 194 171 191 167
2 2 8 7 9 12 15 12 3 298 298 297 310 327 298 294 300 334 23 23 24 24 28 43 95 135 149 201 243 235 246 237 242 253 225 210 218 202 201 208 175 149 140
5 9 6 5 15 14 15 23 297 295 297 303 341 321 297 301 301 323 349 8 15 18 18 25 148 165 156 174 225 227 234 227 236 239 249 244 231 249 260 249 214 204 180
1 4 3 12 15 348 22 332 297 297 295 300 305 321 308 322 319 331 351 353 355 9 13 9 124 161 166 167 175 216 227 222 227 243 258 254 250 259 260 233 229 212 234
352 8 7 18 332 350 13 298 301 298 296 297 299 309 315 321 320 326 330 335 348 354 10 29 119 155 163 171 176 200 222 222 219 228 246 271 269 265 259 246 239 226 229
349 5 6 11 302 5 324 303 305 308 301 299 300 298 309 327 320 317 319 320 338 358 14 39 81 145 165 168 175 193 211 225 222 224 229 245 259 282 293 283 266 256 258
349 0 350 311 305 305 300 303 305 299 299 302 301 303 319 331 334 338 334 329 332 343 3 32 83 133 151 165 170 176 188 205 219 230 234 238 244 250 268 283 292 283 250
343 348 339 311 306 300 305 308 305 305 302 300 302 307 316 321 333 348 342 325 327 334 348 15 102 157 162 162 165 171 173 192 206 215 221 226 233 238 235 234 241 235 226